Wilmington, DE

9:25 PM EDT on April 24, 2018 (GMT -0400)
New Castle County

Weather History for KILG - October, 2012

Change the Weather History Date:

Wednesday, October 31, 2012

  Actual Average Record
Temperature  
Mean Temperature 47 °F 51 °F  
Max Temperature 52 °F 61 °F 82 °F (1946)
Min Temperature 42 °F 42 °F 25 °F (1925)
Degree Days  
Heating Degree Days 18 14  
Month to date heating degree days 234 290  
Since 1 July heating degree days 275 344  
Cooling Degree Days 0 0  
Month to date cooling degree days 26 18  
Year to date cooling degree days 1387 1145  
Moisture  
Dew Point 39 °F    
Average Humidity 80    
Maximum Humidity 100    
Minimum Humidity 59    
Precipitation  
Precipitation T in 0.10 in 1.53 in (1939)
Month to date precipitation 6.25 3.42  
Year to date precipitation 31.41 36.50  
Snow  
Snow 0.00 in 0.00 in 3.00 in (1925)
Month to date snowfall 0.0 0.0  
Since 1 July snowfall 0.0 0.0  
Since 1 September snowfall 0.0 0.0  
Snow Depth 0.00 in    
Sea Level Pressure  
Sea Level Pressure 29.56 in    
Wind  
Wind Speed 7 mph (SW)    
Max Wind Speed 18 mph    
Max Gust Speed 22 mph    
Visibility 10 miles    
Events Rain    
T = Trace of Precipitation, MM = Missing Value Source: NWS Daily Summary

Daily Weather History Graph

Daily Weather History Graph

Search for Another Location

Airport or City:

Astronomy

Oct. 31, 2012 Rise Set
Actual Time 7:30 AM EDT 6:01 PM EDT
Civil Twilight 7:02 AM EDT 6:29 PM EDT
Nautical Twilight 6:30 AM EDT 7:00 PM EDT
Astronomical Twilight 5:59 AM EDT 7:32 PM EDT
Moon 7:11 PM EDT (10/31) 9:08 AM EDT (10/31)
Length of Visible Light 11h 26m
Length of Day
10h 30m
Full, 97% of the Moon is Illuminated
Oct 31
Full
Nov 6
Last Quarter
Nov 13
New
Nov 20
First Quarter
Nov 28
Full

Hourly Weather History & Observations

Time (EDT) Temp. Windchill Dew Point Humidity Pressure Visibility Wind Dir Wind Speed Gust Speed Precip Events Conditions
12:51 AM 43.0 °F 39.5 °F 41.0 °F 93% 29.48 in 10.0 mi South 5.8 mph - N/A   Overcast
1:04 AM 42.8 °F 38.6 °F 41.0 °F 93% 29.48 in 10.0 mi South 6.9 mph - N/A   Overcast
1:51 AM 43.0 °F 38.8 °F 41.0 °F 93% 29.49 in 10.0 mi South 6.9 mph - N/A   Overcast
2:38 AM 42.8 °F 38.6 °F 41.0 °F 93% 29.49 in 10.0 mi SSW 6.9 mph - N/A   Overcast
2:51 AM 43.0 °F 39.5 °F 41.0 °F 93% 29.49 in 10.0 mi SSW 5.8 mph - N/A   Overcast
3:51 AM 42.8 °F 41.1 °F 41.0 °F 93% 29.50 in 10.0 mi WSW 3.5 mph - N/A   Overcast
4:18 AM 42.8 °F 39.3 °F 41.0 °F 93% 29.50 in 5.0 mi SW 5.8 mph - 0.00 in Rain Light Rain
4:51 AM 43.0 °F 40.3 °F 42.1 °F 97% 29.51 in 10.0 mi SW 4.6 mph - 0.00 in   Overcast
5:51 AM 43.0 °F 40.3 °F 43.0 °F 100% 29.53 in 10.0 mi SSW 4.6 mph - N/A   Overcast
6:51 AM 42.1 °F 38.4 °F 41.0 °F 96% 29.54 in 10.0 mi SW 5.8 mph - N/A   Overcast
7:51 AM 43.0 °F 40.3 °F 41.0 °F 93% 29.55 in 10.0 mi SSW 4.6 mph - N/A   Overcast
8:51 AM 44.1 °F 40.8 °F 41.0 °F 89% 29.57 in 10.0 mi SSW 5.8 mph - N/A   Overcast
9:51 AM 45.0 °F 40.1 °F 41.0 °F 86% 29.57 in 10.0 mi SSW 9.2 mph - N/A   Overcast
10:51 AM 46.9 °F - 41.0 °F 80% 29.57 in 10.0 mi SSW 8.1 mph - N/A   Overcast
11:51 AM 48.0 °F - 39.0 °F 71% 29.57 in 10.0 mi WSW 15.0 mph 21.9 mph N/A   Overcast
12:01 PM 46.4 °F 41.1 °F 37.4 °F 71% 29.57 in 10.0 mi West 11.5 mph - N/A   Overcast
12:48 PM 50.0 °F - 37.4 °F 62% 29.57 in 10.0 mi WNW 15.0 mph - N/A   Overcast
12:51 PM 48.9 °F - 39.0 °F 69% 29.57 in 10.0 mi West 13.8 mph - N/A   Overcast
1:51 PM 50.0 °F - 37.0 °F 61% 29.56 in 10.0 mi West 10.4 mph - N/A   Overcast
2:51 PM 51.1 °F - 37.9 °F 61% 29.56 in 10.0 mi West 10.4 mph - N/A   Overcast
3:51 PM 50.0 °F - 37.9 °F 63% 29.57 in 10.0 mi West 8.1 mph - N/A   Overcast
4:51 PM 50.0 °F - 37.9 °F 63% 29.58 in 10.0 mi WSW 10.4 mph - N/A   Overcast
5:51 PM 48.9 °F - 36.0 °F 61% 29.60 in 10.0 mi West 6.9 mph - N/A   Overcast
6:51 PM 48.9 °F - 37.0 °F 64% 29.61 in 10.0 mi West 3.5 mph - N/A   Overcast
7:51 PM 48.0 °F - 37.0 °F 66% 29.62 in 10.0 mi West 4.6 mph - N/A   Overcast
8:51 PM 46.9 °F - 37.9 °F 71% 29.62 in 10.0 mi West 4.6 mph - N/A   Overcast
9:51 PM 46.9 °F - 37.0 °F 68% 29.63 in 10.0 mi West 6.9 mph - N/A   Overcast
10:51 PM 46.9 °F - 36.0 °F 66% 29.63 in 10.0 mi WSW 8.1 mph - N/A   Overcast
11:51 PM 45.0 °F 41.8 °F 35.1 °F 68% 29.63 in 10.0 mi WSW 5.8 mph - N/A   Clear